Flag for Liberia Weather past 2 weeks in Gbarnga, Liberia

Now
77 °F

Passing clouds.


Feels Like: 78 °F
Forecast: 68 / 98 °F
Wind: No wind

Location: Roberts Field

Current Time: Apr 1, 2015 at 12:13:32 AM

Latest Report: Mar 31, 2015 at 11:30 PM


Visibility: N/A

Pressure: 29.89 "Hg

Humidity: 94%

Dew point: 75 °F

Location of GbarngaLocation

Historic Weather in Gbarnga — Graph

°F

Gbarnga temperature yesterday

Maximum temperature yesterday: 91 °F (at 2:00 PM)
Minimum temperature yesterday: 73 °F (at 5:00 AM)
Average temperature yesterday: 81 °F

Past Weeks' High & Low Weather Summary

 TemperatureHumidityPressure
High93 °F (Mar 19, 3:00 PM)100% (Mar 17, 4:00 AM)29.98 "Hg (Mar 17, 4:00 AM)
Low73 °F (Mar 17, 4:00 AM)62% (Mar 19, 1:00 PM)29.71 "Hg (Mar 19, 4:00 PM)
Average81 °F84%29.84 "Hg
* Reported Mar 16 11:00 PM — Mar 31 11:00 PM, Gbarnga, Weather by CustomWeather, © 2015

Note: Actual official high and low records may vary slightly from our data, if they occured in-between our weather recording intervals... More about our weather records

Advertising

Gbarnga weather history for previous 24 hours

 ConditionsComfort  
Time TempWeatherWind HumidityBarometerVisibility
11:00 PM
Tue, Mar 31
77 °FPassing clouds.No wind94%29.89 "HgN/A
10:30 PM77 °FPassing clouds.No wind94%29.89 "HgN/A
10:00 PM77 °FPassing clouds.No wind94%29.89 "HgN/A
9:30 PM77 °FPassing clouds.No wind94%29.89 "HgN/A
9:00 PM79 °FPassing clouds.No wind84%29.86 "HgN/A
8:30 PM79 °FPassing clouds.No wind84%29.86 "HgN/A
8:00 PM79 °FPassing clouds.No wind89%29.86 "HgN/A
7:30 PM81 °FPassing clouds.3 mph84%29.83 "HgN/A
7:00 PM81 °FPassing clouds.3 mph84%29.83 "HgN/A
6:30 PM82 °FPassing clouds.5 mph79%29.80 "HgN/A
6:00 PM84 °FPassing clouds.7 mph79%29.80 "HgN/A
5:30 PM86 °FPassing clouds.9 mph75%29.80 "HgN/A
5:00 PM88 °FPassing clouds.10 mph75%29.80 "HgN/A
4:30 PM88 °FPassing clouds.10 mph70%29.77 "HgN/A
4:00 PM90 °FPassing clouds.13 mph67%29.77 "HgN/A
3:30 PM90 °FPassing clouds.12 mph67%29.80 "HgN/A
3:00 PM90 °FScattered clouds.10 mph67%29.80 "HgN/A
2:30 PM90 °FScattered clouds.9 mph71%29.80 "HgN/A
2:00 PM91 °FPartly sunny.8 mph67%29.83 "HgN/A
1:30 PM88 °FPartly sunny.8 mph75%29.83 "HgN/A
1:00 PM88 °FPartly sunny.No wind70%29.86 "HgN/A
12:30 PM90 °FPartly sunny.3 mph67%29.86 "HgN/A
12:00 PM90 °FPartly sunny.7 mph67%29.89 "HgN/A
11:30 AM88 °FScattered clouds.7 mph66%29.89 "HgN/A
11:00 AM86 °FPassing clouds.8 mph75%29.92 "HgN/A
10:30 AM86 °FPassing clouds.3 mph75%29.92 "HgN/A
10:00 AM82 °FSunny.5 mph84%29.92 "Hg10 mi
9:30 AM82 °FSunny.7 mph79%29.92 "Hg10 mi
9:00 AM81 °FPassing clouds.3 mph84%29.92 "HgN/A
8:30 AM79 °FPassing clouds.3 mph84%29.92 "HgN/A
8:00 AM77 °FPassing clouds.No wind94%29.92 "HgN/A
7:30 AM75 °FPassing clouds.No wind94%29.89 "HgN/A
7:00 AM75 °FPassing clouds.3 mph94%29.89 "Hg6 mi
6:30 AM73 °FPassing clouds.5 mph100%29.89 "Hg6 mi
6:00 AM73 °FPassing clouds.5 mph100%29.86 "Hg5 mi
5:30 AM73 °FPassing clouds.No wind100%29.86 "Hg6 mi
5:00 AM73 °FPassing clouds.No wind94%29.86 "HgN/A
4:30 AM75 °FPassing clouds.No wind94%29.86 "HgN/A
4:00 AM75 °FPassing clouds.3 mph94%29.86 "HgN/A
3:30 AM75 °FPassing clouds.3 mph94%29.86 "HgN/A
3:00 AM75 °FPassing clouds.No wind94%29.86 "HgN/A
2:00 AM77 °FPassing clouds.No wind94%29.86 "HgN/A
1:30 AM77 °FPassing clouds.No wind94%29.86 "HgN/A
1:00 AM77 °FPassing clouds.No wind94%29.86 "HgN/A
12:30 AM77 °FPassing clouds.No wind94%29.89 "HgN/A
12:00 AM77 °FPassing clouds.No wind94%29.89 "HgN/A
Weather by CustomWeather, © 2015

See weather overviewHow to use our weather pages